EW4554 Weather Reports


Display with metric or nautical units.
time (UTC)temp
F
wind
direction
speed
MPH
gust
MPH
rain 1hr
in
rain 24hr
in
rain mn
in
humidity
%
barometer
mb
20240530010021 60 159 0.0 3.0 0.00 0.00 0.00 91 1014.4
20240530004511 60 311 0.0 4.0 0.00 0.00 0.00 91 1014.7
20240530003009 60 300 0.0 1.0 0.00 0.00 0.00 90 1014.8
20240530001508 60 42 0.0 4.0 0.00 0.00 0.00 90 1014.9
20240530000004 60 271 0.0 8.0 0.00 0.00 0.00 90 1015.0
20240529234609 60 308 1.0 5.0 0.00 0.00 0.00 91 1015.1
20240529233056 60 326 0.0 3.0 0.00 0.00 0.00 91 1015.2
20240529231555 59 252 1.0 3.0 0.00 0.00 0.00 91 1015.3
20240529230051 59 224 0.0 4.0 0.00 0.00 0.00 91 1015.4
20240529224551 58 285 0.0 3.0 0.00 0.00 0.00 91 1015.5
20240529223051 58 331 0.0 4.0 0.00 0.00 0.00 91 1015.5
20240529221558 58 246 0.0 4.0 0.00 0.00 0.00 89 1015.6
20240529220049 58 273 1.0 3.0 0.00 0.00 0.00 88 1015.7
20240529214549 58 270 1.0 3.0 0.00 0.00 0.00 87 1016.0
20240529213051 59 333 0.0 6.0 0.00 0.00 0.00 86 1016.0
20240529211557 60 248 0.0 3.0 0.00 0.00 0.00 85 1016.0
20240529210054 60 236 1.0 4.0 0.00 0.00 0.00 83 1016.0
20240529204548 61 209 0.0 9.0 0.00 0.00 0.00 82 1015.8
20240529203047 62 281 0.0 1.0 0.00 0.00 0.00 80 1015.8
20240529201551 63 255 0.0 3.0 0.00 0.00 0.00 79 1015.7
20240529200048 64 260 0.0 3.0 0.00 0.00 0.00 77 1015.7
20240529194547 66 273 0.0 3.0 0.00 0.00 0.00 73 1015.7
20240529193111 67 245 0.0 4.0 0.00 0.00 0.00 71 1015.6
20240529191605 69 249 1.0 3.0 0.00 0.00 0.00 68 1015.6
20240529190051 70 44 1.0 8.0 0.00 0.00 0.00 65 1015.4
20240529184545 71 274 0.0 3.0 0.00 0.00 0.00 61 1015.4
20240529183045 72 327 2.0 7.0 0.00 0.00 0.00 58 1015.4
20240529181543 74 223 0.0 4.0 0.00 0.00 0.00 54 1015.1
20240529180043 74 264 1.0 5.0 0.00 0.00 0.00 53 1014.9
20240529174542 76 206 1.0 5.0 0.00 0.00 0.00 48 1015.0
20240529173044 78 256 1.0 5.0 0.00 0.00 0.00 46 1015.0
20240529171542 80 327 0.0 5.0 0.00 0.00 0.00 45 1015.0
20240529170040 82 234 1.0 7.0 0.00 0.00 0.00 40 1015.2
20240529164546 83 278 2.0 5.0 0.00 0.00 0.00 51 1015.0
20240529163048 84 284 0.0 5.0 0.00 0.00 0.00 49 1015.0
20240529161538 84 290 1.0 4.0 0.00 0.00 0.00 50 1015.1
20240529160040 84 248 1.0 7.0 0.00 0.00 0.00 50 1015.0
20240529154545 86 269 1.0 4.0 0.00 0.00 0.00 46 1015.0
20240529153037 87 279 1.0 5.0 0.00 0.00 0.00 47 1015.0
20240529151536 87 95 2.0 6.0 0.00 0.00 0.00 44 1015.0
20240529150036 87 321 2.0 5.0 0.00 0.00 0.00 45 1015.1
20240529144534 87 70 2.0 8.0 0.00 0.00 0.00 46 1015.2
20240529143033 87 279 2.0 5.0 0.00 0.00 0.00 44 1015.3
20240529141537 87 298 1.0 5.0 0.00 0.00 0.00 53 1015.4
20240529140038 86 219 2.0 4.0 0.00 0.00 0.00 49 1015.5
20240529134526 87 315 2.0 6.0 0.00 0.00 0.00 46 1015.7
20240529133025 87 318 1.0 12.0 0.00 0.00 0.00 46 1015.7
20240529131523 86 298 2.0 8.0 0.00 0.00 0.00 48 1015.8
20240529130019 87 327 2.0 6.0 0.00 0.00 0.00 46 1016.1
20240529124517 86 267 1.0 5.0 0.00 0.00 0.00 47 1016.2
20240529123029 85 243 1.0 5.0 0.00 0.00 0.00 50 1016.3
20240529121511 84 323 2.0 5.0 0.00 0.00 0.00 50 1016.4
20240529120007 84 80 1.0 5.0 0.00 0.00 0.00 52 1016.5
20240529114504 83 306 1.0 6.0 0.00 0.00 0.00 50 1016.7
20240529113003 83 290 2.0 6.0 0.00 0.00 0.00 48 1016.9
20240529111600 82 118 1.0 9.0 0.00 0.00 0.00 51 1017.1
20240529110056 82 252 1.0 3.0 0.00 0.00 0.00 53 1017.2
20240529104601 80 228 1.0 4.0 0.00 0.00 0.00 56 1017.3
20240529103047 79 212 0.0 9.0 0.00 0.00 0.00 55 1017.4
20240529101545 79 293 0.0 5.0 0.00 0.00 0.00 57 1017.4
20240529100041 77 297 1.0 3.0 0.00 0.00 0.00 59 1017.4
20240529094536 75 227 1.0 5.0 0.00 0.00 0.00 62 1017.5
20240529093045 74 235 1.0 3.0 0.00 0.00 0.00 62 1017.6
20240529091531 73 348 2.0 6.0 0.00 0.00 0.00 66 1017.7
20240529090025 71 221 1.0 5.0 0.00 0.00 0.00 70 1017.8
20240529084533 69 13 0.0 3.0 0.00 0.00 0.00 71 1017.9
20240529083018 68 234 1.0 4.0 0.00 0.00 0.00 73 1018.0
20240529081515 67 349 1.0 5.0 0.00 0.00 0.00 75 1018.1
20240529080012 65 271 0.0 2.0 0.00 0.00 0.00 79 1018.1
20240529074504 63 230 0.0 5.0 0.00 0.00 0.00 84 1018.2
20240529073100 61 94 0.0 6.0 0.00 0.00 0.00 87 1018.1
20240529071610 59 304 1.0 4.0 0.00 0.00 0.00 89 1018.1
20240529070051 58 227 0.0 3.0 0.00 0.00 0.00 92 1018.0
20240529064548 57 214 0.0 7.0 0.00 0.00 0.00 94 1018.1
20240529063045 56 309 0.0 3.0 0.00 0.00 0.00 95 1018.1
20240529061547 55 297 0.0 3.0 0.00 0.00 0.00 96 1018.1
20240529060043 54 297 0.0 2.0 0.00 0.00 0.00 96 1018.0
20240529054537 53 234 0.0 2.0 0.00 0.00 0.00 96 1017.9
20240529053035 52 238 0.0 2.0 0.00 0.00 0.00 96 1017.9
20240529051534 51 318 0.0 2.0 0.00 0.00 0.00 96 1017.9
20240529050033 50 226 0.0 0.0 0.00 0.00 0.00 93 1017.7
20240529044538 50 225 0.0 1.0 0.00 0.00 0.00 93 1017.7
20240529043031 50 225 0.0 1.0 0.00 0.00 0.00 93 1017.7
20240529041538 50 249 0.0 1.0 0.00 0.00 0.00 93 1017.6
20240529040029 51 249 0.0 0.0 0.00 0.00 0.00 91 1017.7
20240529035010 51 249 0.0 1.0 0.00 0.00 0.00 91 1017.6
20240529030736 53 249 0.0 2.0 0.00 0.00 0.00 91 1017.7
20240529023023 54 254 0.0 1.0 0.00 0.00 0.00 90 1018.0
20240529015054 54 254 0.0 2.0 0.00 0.00 0.00 89 1018.2
20240529011104 55 262 0.0 2.0 0.00 0.00 0.00 88 1018.5